Regional Weather Roundup
Issued by NWS Goodland, KS

Home | Current Version | Previous Version | Graphics & Text | Print | Product List | Glossary On
Versions: 1 2 3 4 5 6 7 8 9 10 11 12 13 14 15 16 17 18 19 20 21 22 23 24 25 26 27 28 29 30 31 32 33 34 35 36 37 38 39 40 41 42 43 44 45 46 47 48 49 50
000
ASUS43 KGLD 212059
RWRGLD

GOODLAND FORECAST AREA HOURLY WEATHER ROUNDUP
NATIONAL WEATHER SERVICE GOODLAND KS
300 PM MDT MON AUG 21 2017

...OFFICIAL OBSERVATIONS...

CITY           SKY/WX    TMP DP  RH WIND       PRES   REMARKS
GOODLAND KS    MOSUNNY   85  60  42 CALM      29.99S
HILL CITY KS   CLOUDY    90  65  43 SW10G23   29.93F
IMPERIAL NEB   SUNNY     87  66  49 N13G20    29.99S
MCCOOK NEB     CLOUDY    85  64  49 SW8       29.95S
AKRON CO       SUNNY     83  54  36 N24       30.11S
BURLINGTON CO  MOSUNNY   88  62  41 N8        30.04S
LIMON CO       SUNNY     85  47  26 N13G25    30.15F
$$

...UNOFFICIAL OBSERVATIONS...

CITY           SKY/WX    TMP DP  RH WIND       PRES   REMARKS
LENORA KS        N/A     86  32  14 S10         N/A
NORTON KS      SUNNY     88  55  33 S14       29.93F
TRENTON NEB      N/A     89  32  13 CALM        N/A
KIT CARSON CO    N/A     89  57  33 MISG        N/A
YUMA CO        FAIR      82  45  26 N17G23    30.06S
$$



USA.gov is the U.S. government's official web portal to all federal, state and local government web resources and services.